Regional Weather Roundup
Issued by NWS Northern Indiana

Home | Current Version | Previous Version | Text Only | Print | Product List | Glossary Off
Versions: 1 2 3 4 5 6 7 8 9 10 11 12 13 14 15 16 17 18 19 20 21 22 23 24 25 26 27 28 29 30 31 32 33 34 35 36 37 38 39 40 41 42 43 44 45 46 47 48 49 50

000
ASUS43 KIWX 260110
RWRIWX

KIWX WEATHER ROUNDUP
NATIONAL WEATHER SERVICE NORTHERN INDIANA
900 PM EDT SUN JUN 25 2017

NOTE: "FAIR" INDICATES FEW OR NO CLOUDS BELOW 12,000 FEET WITH NO
SIGNIFICANT WEATHER AND/OR OBSTRUCTIONS TO VISIBILITY.

* THESE STATIONS ARE NOT UNDER NWS QUALITY CONTROL. THEY ALSO MAY NOT
  REPORT WEATHER SUCH AS PRECIPITATION OR FOG.

INZ001>027-260200-
NORTHERN INDIANA

CITY           SKY/WX    TMP DP  RH WIND       PRES   REMARKS
GARY*          PTCLDY    70  45  40 W21G32    30.10R
VALPARAISO     CLOUDY    68  48  48 W13       30.09S
MICHIGAN CITY* LGT RAIN  66  48  52 W8        30.08F
LAPORTE*       CLOUDY    67  47  48 W8G17     30.09S
KNOX*          CLOUDY    66  36  32 W8        30.09R
SOUTH BEND     MOCLDY    64  47  53 W6        30.08R
GOSHEN         CLOUDY    67  44  43 W7        30.07S
MONTICELLO*    PTCLDY    67  46  46 W7        30.10S
LOGANSPORT*    PTCLDY    66  45  45 W9        30.11S
ROCHESTER*     PTCLDY    68  43  40 W7        30.10S
WARSAW*        PTCLDY    64  43  45 W7        30.09R
AUBURN*        MOCLDY    64  45  48 CALM      30.08S
FORT WAYNE     MOCLDY    67  46  47 W9        30.09R
HUNTINGTON*    MOCLDY    65  44  47 W5        30.09S
PERU/GRISSOM   MOCLDY    66  49  54 W9        30.07F
MARION*        MOCLDY    66  46  48 W6        30.11S

$$
INZ028>050-260200-
CENTRAL INDIANA

CITY           SKY/WX    TMP DP  RH WIND       PRES   REMARKS
LAFAYETTE      CLEAR     66  48  52 NW9       30.11R
KOKOMO*        PTCLDY    66  50  56 W7        30.11S
MUNCIE*        CLEAR     67  49  52 W6        30.11R
INDIANAPOLIS   PTCLDY    69  46  43 W9        30.11S

$$
MIZ043>046-050>051-056>058-064>065-071>073-077>080-260200-
SOUTHWEST LOWER MICHIGAN

CITY           SKY/WX    TMP DP  RH WIND       PRES   REMARKS
BATTLE CREEK   CLEAR     64  46  52 W9        30.07R
BENTON HARBOR  PTCLDY    66  49  54 W9        30.07R
COLDWATER*     PTCLDY    65  42  42 W7        30.07R
HILLSDALE*     CLEAR     61  43  51 W6        30.06S
HOLLAND        MOCLDY    65  52  62 W9        30.06R
GRAND RAPIDS   MOCLDY    65  49  56 W10       30.04R
KALAMAZOO      CLEAR     66  43  43 W6        30.07R
STURGIS*       PTCLDY    65  47  51 W5        30.06S
THREE RIVERS*  FAIR      63  46  53 W8        30.07S

$$
OHZ001>008-015>018-024>025-260200-
NORTHWEST OHIO

CITY           SKY/WX    TMP DP  RH WIND       PRES   REMARKS
WAUSEON*       FAIR      66  43  42 W7        30.06R
DEFIANCE       CLOUDY    66  44  45 W5        30.07R
FINDLAY        CLOUDY    67  46  47 W7        30.06S
TOLEDO EXPRESS PTCLDY    67  43  41 W8        30.05R
TOLEDO METCALF PTCLDY    68  44  42 W8        30.06R
LIMA           CLEAR     65  45  48 W9        30.09R

$$
AND FOR LAKE MICHIGAN COASTAL AND OPEN LAKE BUOY OBSERVATIONS

STATION/POSITION TEMP    WIND        PRES    VSBY  WAVE
                 AIR SEA DIR/SP/G                  HT/PER
                 (F)     (DEG/KT/KT) (MB)    (MI)  (FT/S)
CALUMET HARBOR    67     250/  9/ 14 1018.4R
MICHIGAN CITY     67     250/ 15/ 17   N/A
BURNS HARBOR      68     270/ 17/ 18 1018.6S
SOUTH LAKE BUOY   64 62  300/  8/ 10 1017.4          1/ 4
4 MI NW BRIDGMAN  67 69  290/ 10/ 12 1018.2          1/ 4
MICHIGAN CITY     67 67  290/ 12/ 16   N/A           2/ 3

$$
&&




USA.gov is the U.S. government's official web portal to all federal, state and local government web resources and services.